Cairo, Egypt

3:27 PM EET on October 20, 2017 (GMT +0200)
Cairo International Airport

Weather History for HECA - May, 2012

Change the Weather History Date:

Monday, May 21, 2012

  Actual Average Record
Temperature  
Mean Temperature 75 °F -  
Max Temperature 86 °F 90 °F 96 °F (2001)
Min Temperature 64 °F 68 °F 44 °F (2004)
Cooling Degree Days 10    
Growing Degree Days 25 (Base 50)    
Moisture  
Dew Point 51 °F    
Average Humidity 43    
Maximum Humidity 77    
Minimum Humidity 14    
Precipitation  
Precipitation 0.00 in 0.00 in - ()
Sea Level Pressure  
Sea Level Pressure 29.98 in    
Wind  
Wind Speed 8 mph ()    
Max Wind Speed 14 mph    
Max Gust Speed -    
Visibility 6.0 miles    
Events      
Averages and records for this station are not official NWS values.
T = Trace of Precipitation, MM = Missing Value Source: Averaged Metar Reports

Daily Weather History Graph

Daily Weather History Graph

Search for Another Location

Airport or City:

Trip Planner

Search our weather history database for the weather conditions in past years. The results will help you decide how hot, cold, wet, or windy it might be!

Date:

Astronomy

May. 21, 2012 Rise Set
Actual Time 4:57 AM EET 6:45 PM EET
Civil Twilight 4:30 AM EET 7:11 PM EET
Nautical Twilight 3:58 AM EET 7:43 PM EET
Astronomical Twilight 3:25 AM EET 8:17 PM EET
Moon 5:06 AM EET (5/21) 7:16 PM EET (5/21)
Length of Visible Light 14h 40m
Length of Day
13h 47m
New Moon, 0% of the Moon is Illuminated
May 21
New Moon
May 28
First Quarter
Jun 4
Full
Jun 11
Last Quarter
Jun 19
New

Hourly Weather History & Observations

Time (EET) Temp. Dew Point Humidity Pressure Visibility Wind Dir Wind Speed Gust Speed Precip Events Conditions
12:00 AM 68.0 °F 57.2 °F 68% 30.01 in - NNE 13.8 mph - N/A   Clear
12:30 AM 68.0 °F 57.2 °F 68% 30.01 in - NNE 11.5 mph - N/A   Clear
1:00 AM 68.0 °F 57.2 °F 68% 30.01 in - NNE 11.5 mph - N/A   Clear
1:30 AM 68.0 °F 57.2 °F 68% 30.01 in - NNE 11.5 mph - N/A   Clear
2:00 AM 68 °F 58 °F 61% 30.00 in 6 mi NE 8.1 mph - -  
2:00 AM 68.0 °F 57.2 °F 68% 29.98 in - NE 8.1 mph - N/A   Clear
2:30 AM 68.0 °F 57.2 °F 68% 29.98 in - NE 8.1 mph - N/A   Clear
3:00 AM 66.2 °F 57.2 °F 73% 29.98 in - NNE 6.9 mph - N/A   Clear
3:30 AM 66.2 °F 57.2 °F 73% 29.98 in - NNE 6.9 mph - N/A   Clear
4:00 AM 64.4 °F 57.2 °F 77% 29.98 in - NNE 5.8 mph - N/A   Clear
4:30 AM 64.4 °F 57.2 °F 77% 29.98 in - NNE 5.8 mph - N/A   Clear
5:00 AM 64.4 °F 55.4 °F 73% 29.98 in - ENE 6.9 mph - N/A   Clear
5:30 AM 66.2 °F 55.4 °F 68% 29.98 in - ENE 6.9 mph - N/A   Clear
6:00 AM 66.2 °F 57.2 °F 73% 29.98 in - ENE 9.2 mph - N/A   Clear
6:30 AM 68.0 °F 57.2 °F 68% 29.98 in - ENE 9.2 mph - N/A   Clear
7:00 AM 69.8 °F 57.2 °F 64% 29.98 in - ENE 8.1 mph - N/A   Clear
7:30 AM 69.8 °F 57.2 °F 64% 30.01 in - ENE 6.9 mph - N/A   Clear
8:00 AM 71 °F 54 °F 45% 30.01 in 6 mi ENE 8.1 mph - -  
8:00 AM 71.6 °F 53.6 °F 53% 30.01 in - ENE 8.1 mph - N/A   Clear
8:30 AM 73.4 °F 53.6 °F 50% 30.01 in - East 5.8 mph - N/A   Clear
9:00 AM 73.4 °F 51.8 °F 47% 30.01 in - NE 9.2 mph - N/A   Clear
9:30 AM 77.0 °F 48.2 °F 36% 30.01 in - NE 9.2 mph - N/A   Clear
10:00 AM 77.0 °F 51.8 °F 41% 29.98 in - NNE 5.8 mph - N/A   Clear
10:30 AM 80.6 °F 48.2 °F 32% 30.01 in - East 5.8 mph - N/A   Clear
11:00 AM 80.6 °F 50.0 °F 34% 29.98 in - NE 6.9 mph - N/A   Clear
11:30 AM 82.4 °F 42.8 °F 25% 29.98 in - NE 10.4 mph - N/A   Clear
12:00 PM 84.2 °F 44.6 °F 25% 29.98 in - NE 6.9 mph - N/A   Clear
12:30 PM 84.2 °F 44.6 °F 25% 29.98 in - North 6.9 mph - N/A   Clear
1:00 PM 84.2 °F 41.0 °F 22% 29.98 in - NNE 9.2 mph - N/A   Clear
1:30 PM 86.0 °F 44.6 °F 23% 29.98 in - NW 4.6 mph - N/A   Clear
2:00 PM 86 °F 44 °F 14% 29.96 in 6 mi North 9.2 mph - -  
2:00 PM 86.0 °F 44.6 °F 23% 29.95 in - North 9.2 mph - N/A   Clear
2:30 PM 86.0 °F 46.4 °F 25% 29.98 in - NNW 11.5 mph - N/A   Clear
3:00 PM 86.0 °F 46.4 °F 25% 29.95 in - North 11.5 mph - N/A   Clear
3:30 PM 86.0 °F 46.4 °F 25% 29.95 in - North 9.2 mph - N/A   Clear
4:00 PM 86.0 °F 46.4 °F 25% 29.95 in - North 9.2 mph - N/A   Clear
4:30 PM 86.0 °F 46.4 °F 25% 29.95 in - North 9.2 mph - N/A   Clear
5:00 PM 86.0 °F 46.4 °F 25% 29.95 in - NNW 10.4 mph - N/A   Clear
5:30 PM 86.0 °F 46.4 °F 25% 29.95 in - NNW 11.5 mph - N/A   Clear
6:00 PM 84.2 °F 46.4 °F 27% 29.95 in - North 11.5 mph - N/A   Clear
6:30 PM 84.2 °F 48.2 °F 29% 29.95 in - NNW 10.4 mph - N/A   Clear
7:00 PM 84.2 °F 46.4 °F 27% 29.95 in - NNW 9.2 mph - N/A   Clear
7:30 PM 82.4 °F 48.2 °F 30% 29.98 in - NNW 9.2 mph - N/A   Clear
8:00 PM 83 °F 47 °F 19% 29.96 in 6 mi North 8.1 mph - -  
8:00 PM 82.4 °F 48.2 °F 30% 29.95 in - North 8.1 mph - N/A   Clear
8:30 PM 82.4 °F 48.2 °F 30% 29.98 in - North 5.8 mph - N/A   Clear
9:00 PM 82.4 °F 48.2 °F 30% 29.98 in - North 5.8 mph - N/A   Clear
9:30 PM 82.4 °F 48.2 °F 30% 29.98 in - North 5.8 mph - N/A   Clear
10:00 PM 80.6 °F 48.2 °F 32% 29.98 in - NW 3.5 mph - N/A   Clear
10:30 PM 80.6 °F 48.2 °F 32% 29.98 in - NW 3.5 mph - N/A   Clear
11:00 PM 78.8 °F 48.2 °F 34% 29.98 in - NW 4.6 mph - N/A   Clear
11:30 PM 78.8 °F 48.2 °F 34% 29.98 in - WNW 2.3 mph - N/A   Clear